{"data":{"norad_id":68491,"epoch":"2026-09-20T02:42:27.923616Z","epoch_age_seconds":102331,"freshness":"FRESH","line1":"1 68491U 26067CD  26263.11282319  .00003268  00000+0  32568-3 0  9990","line2":"2 68491  97.7660 219.8263 0004708  91.2286 268.9472 14.92264659 25871","mean_motion":14.92264659,"eccentricity":0.0004708,"inclination_deg":97.766,"raan_deg":219.8263,"arg_perigee_deg":91.2286,"mean_anomaly_deg":268.9472,"bstar":0.00032568,"rev_number":2587,"period_min":96.497628039049,"perigee_km":587.59494808369,"apogee_km":594.15697068624,"semimajor_km":6969.012959385,"source":"CELESTRAK","updated_at":"2026-09-20T09:00:24.254759Z"}}